Weather History for Middlesboro, KY

Change the Weather History Date:

Monday, February 4, 2013

  Actual Average (KLOZ) Record (KLOZ)
Temperature  
Mean Temperature 35 °F 37 °F  
Max Temperature 46 °F 47 °F 73 °F (1962)
Min Temperature 24 °F 27 °F -5 °F (1970)
Degree Days  
Heating Degree Days 30 28  
Month to date heating degree days 112  
Since 1 July heating degree days 2675  
Cooling Degree Days 0 0  
Month to date cooling degree days 0  
Year to date cooling degree days 0  
Moisture  
Dew Point 29 °F    
Average Humidity 75    
Maximum Humidity 100    
Minimum Humidity 50    
Precipitation  
Precipitation 0.00 in 0.13 in 1.04 in (1956)
Month to date precipitation 0.51  
Year to date precipitation 4.05  
Sea Level Pressure  
Sea Level Pressure 30.01 in    
Wind  
Wind Speed 2 mph (South)    
Max Wind Speed 16 mph    
Max Gust Speed 17 mph    
Visibility 10 miles    
Events      
T = Trace of Precipitation, MM = Missing Value Source: NWS Daily Summary

Daily Weather History Graph

Daily Weather History Graph

Search for Another Location

Airport:

Trip Planner

Search our weather history database for the weather conditions in past years. The results will help you decide how hot, cold, wet, or windy it might be!

Date:

Astronomy

Feb. 04, 2013 Rise Set
Actual Time 6:33 AM CST 5:04 PM CST
Civil Twilight 6:06 AM CST 5:31 PM CST
Nautical Twilight 5:36 AM CST 6:02 PM CST
Astronomical Twilight 5:05 AM CST 6:32 PM CST
Moon 1:06 AM CST (2/4) 11:29 AM CST (2/4)
Length of Visible Light 11h 24m
Length of Day
10h 30m
Last Quarter, 37% of the Moon is Illuminated
Feb 4
Last Quarter
Feb 10
New
Feb 17
First Quarter
Feb 25
Full
Mar 4
Last Quarter

Hourly Weather History & Observations

Time (CST) Temp. Windchill Dew Point Humidity Pressure Visibility Wind Dir Wind Speed Gust Speed Precip Events Conditions
12:15 AM 30.2 °F - 26.6 °F 86% 30.13 in 10.0 mi Calm Calm - N/A   Scattered Clouds
12:35 AM 30.2 °F - 26.6 °F 86% 30.10 in 10.0 mi Calm Calm - N/A   Clear
12:55 AM 28.4 °F 24.6 °F 26.6 °F 93% 30.10 in 10.0 mi West 3.5 mph - N/A   Clear
1:15 AM 28.4 °F - 24.8 °F 86% 30.10 in 10.0 mi Calm Calm - N/A   Clear
1:35 AM 28.4 °F 24.6 °F 24.8 °F 86% 30.10 in 10.0 mi WSW 3.5 mph - N/A   Clear
1:55 AM 28.4 °F 23.3 °F 24.8 °F 86% 30.10 in 10.0 mi West 4.6 mph - N/A   Clear
2:15 AM 28.4 °F 24.6 °F 24.8 °F 86% 30.09 in 10.0 mi West 3.5 mph - N/A   Clear
2:35 AM 26.6 °F - 24.8 °F 93% 30.08 in 10.0 mi Calm Calm - N/A   Clear
2:55 AM 26.6 °F - 24.8 °F 93% 30.07 in 10.0 mi Calm Calm - N/A   Clear
3:15 AM 26.6 °F 22.6 °F 24.8 °F 93% 30.07 in 10.0 mi West 3.5 mph - N/A   Clear
4:55 AM 24.8 °F - 24.8 °F 100% 30.10 in 10.0 mi Calm Calm - N/A   Clear
5:15 AM 24.8 °F - 24.8 °F 100% 30.10 in 10.0 mi Calm Calm - N/A   Clear
5:35 AM 24.8 °F - 24.8 °F 100% 30.10 in 10.0 mi Calm Calm - N/A   Clear
6:15 AM 26.6 °F - 24.8 °F 93% 30.11 in 10.0 mi Calm Calm - N/A   Clear
6:55 AM 26.6 °F - 24.8 °F 93% 30.11 in 10.0 mi Calm Calm - N/A   Clear
7:15 AM 26.6 °F - 26.6 °F 100% 30.11 in 10.0 mi Calm Calm - N/A   Clear
7:35 AM 26.6 °F - 26.6 °F 100% 30.11 in 10.0 mi Calm Calm - N/A   Clear
7:55 AM 26.6 °F - 26.6 °F 100% 30.09 in 10.0 mi Calm Calm - N/A   Clear
8:15 AM 28.4 °F - 26.6 °F 93% 30.10 in 10.0 mi Calm Calm - N/A   Clear
8:35 AM 30.2 °F - 26.6 °F 86% 30.10 in 10.0 mi Calm Calm - N/A   Clear
8:55 AM 32.0 °F - 26.6 °F 80% 30.11 in 10.0 mi Calm Calm - N/A   Clear
9:15 AM 33.8 °F - 28.4 °F 81% 30.10 in 10.0 mi Calm Calm - N/A   Clear
9:35 AM 35.6 °F 30.7 °F 26.6 °F 70% 30.09 in 10.0 mi South 5.8 mph - N/A   Clear
9:55 AM 35.6 °F 30.7 °F 26.6 °F 70% 30.10 in 10.0 mi South 5.8 mph - N/A   Clear
10:15 AM 35.6 °F - 26.6 °F 70% 30.09 in 10.0 mi Calm Calm - N/A   Clear
10:35 AM 37.4 °F 32.8 °F 26.6 °F 65% 30.09 in 10.0 mi SE 5.8 mph - N/A   Clear
10:55 AM 37.4 °F 31.4 °F 28.4 °F 70% 30.07 in 10.0 mi South 8.1 mph - N/A   Scattered Clouds
11:15 AM 37.4 °F 32.8 °F 28.4 °F 70% 30.06 in 10.0 mi SSE 5.8 mph - N/A   Clear
11:35 AM 39.2 °F 33.0 °F 28.4 °F 65% 30.05 in 10.0 mi South 9.2 mph - N/A   Clear
11:55 AM 39.2 °F 37.0 °F 28.4 °F 65% 30.04 in 10.0 mi SE 3.5 mph - N/A   Clear
12:15 PM 41.0 °F 37.1 °F 28.4 °F 61% 30.02 in 10.0 mi South 5.8 mph - N/A   Mostly Cloudy
12:35 PM 42.8 °F 38.0 °F 28.4 °F 57% 30.01 in 10.0 mi South 8.1 mph - N/A   Scattered Clouds
12:55 PM 42.8 °F 38.6 °F 30.2 °F 61% 29.99 in 10.0 mi South 6.9 mph 16.1 mph N/A   Clear
1:15 PM 42.8 °F 38.0 °F 28.4 °F 57% 29.98 in 10.0 mi SSE 8.1 mph - N/A   Clear
1:35 PM 42.8 °F 37.5 °F 28.4 °F 57% 29.97 in 10.0 mi South 9.2 mph 16.1 mph N/A   Clear
1:55 PM 42.8 °F 36.6 °F 28.4 °F 57% 29.96 in 10.0 mi South 11.5 mph 17.3 mph N/A   Mostly Cloudy
2:15 PM 42.8 °F 35.1 °F 28.4 °F 57% 29.96 in 10.0 mi South 16.1 mph - N/A   Mostly Cloudy
2:35 PM 44.6 °F 38.8 °F 28.4 °F 53% 29.96 in 10.0 mi South 11.5 mph 17.3 mph N/A   Scattered Clouds
2:55 PM 44.6 °F 40.7 °F 28.4 °F 53% 29.96 in 10.0 mi South 6.9 mph - N/A   Mostly Cloudy
3:15 PM 46.4 °F 42.4 °F 30.2 °F 53% 29.95 in 10.0 mi South 8.1 mph - N/A   Mostly Cloudy
3:35 PM 46.4 °F 45.2 °F 28.4 °F 50% 29.95 in 10.0 mi South 3.5 mph - N/A   Scattered Clouds
3:55 PM 46.4 °F 45.2 °F 30.2 °F 53% 29.94 in 10.0 mi SE 3.5 mph - N/A   Clear
4:15 PM 46.4 °F - 30.2 °F 53% 29.94 in 10.0 mi Calm Calm - N/A   Scattered Clouds
4:35 PM 46.4 °F 45.2 °F 30.2 °F 53% 29.94 in 10.0 mi South 3.5 mph - N/A   Scattered Clouds
4:55 PM 46.4 °F 43.5 °F 30.2 °F 53% 29.93 in 10.0 mi SSW 5.8 mph - N/A   Mostly Cloudy
5:15 PM 44.6 °F - 30.2 °F 57% 29.93 in 10.0 mi Calm Calm - N/A   Scattered Clouds
5:35 PM 44.6 °F - 30.2 °F 57% 29.94 in 10.0 mi Calm Calm - N/A   Mostly Cloudy
5:55 PM 44.6 °F - 30.2 °F 57% 29.94 in 10.0 mi Calm Calm - N/A   Overcast
6:15 PM 46.4 °F 43.5 °F 30.2 °F 53% 29.94 in 10.0 mi SSW 5.8 mph - N/A   Overcast
6:35 PM 46.4 °F 41.9 °F 30.2 °F 53% 29.94 in 10.0 mi South 9.2 mph - N/A   Overcast
6:55 PM 46.4 °F 44.3 °F 30.2 °F 53% 29.94 in 10.0 mi South 4.6 mph - N/A   Overcast
7:15 PM 44.6 °F 40.7 °F 30.2 °F 57% 29.94 in 10.0 mi South 6.9 mph - N/A   Overcast
7:35 PM 42.8 °F - 33.8 °F 70% 29.94 in 10.0 mi Calm Calm - N/A   Overcast
7:55 PM 41.0 °F - 33.8 °F 76% 29.94 in 10.0 mi Calm Calm - N/A   Overcast
8:15 PM 39.2 °F - 33.8 °F 81% 29.94 in 10.0 mi Calm Calm - N/A   Overcast
8:35 PM 39.2 °F - 35.6 °F 87% 29.95 in 10.0 mi Calm Calm - N/A   Overcast
8:55 PM 39.2 °F - 35.6 °F 87% 29.95 in 10.0 mi Calm Calm - N/A   Overcast
9:15 PM 39.2 °F 37.0 °F 35.6 °F 87% 29.94 in 10.0 mi NW 3.5 mph - N/A   Overcast
9:35 PM 39.2 °F - 35.6 °F 87% 29.94 in 10.0 mi Calm Calm - N/A   Overcast
9:55 PM 39.2 °F - 35.6 °F 87% 29.94 in 10.0 mi Calm Calm - N/A   Mostly Cloudy
10:15 PM 39.2 °F - 33.8 °F 81% 29.93 in 10.0 mi Calm Calm - N/A   Overcast
10:35 PM 39.2 °F - 33.8 °F 81% 29.93 in 10.0 mi Calm Calm - N/A   Overcast
10:55 PM 41.0 °F - 35.6 °F 81% 29.93 in 10.0 mi Calm Calm - N/A   Overcast
11:15 PM 39.2 °F - 35.6 °F 87% 29.93 in 10.0 mi Calm Calm - N/A   Overcast
11:35 PM 39.2 °F - 35.6 °F 87% 29.93 in 10.0 mi Calm Calm - N/A   Overcast
11:55 PM 39.2 °F - 35.6 °F 87% 29.92 in 10.0 mi Calm Calm - N/A   Overcast